Regional Weather Roundup
Issued by NWS

Home | Current Version | Previous Version | Graphics & Text | Print | Product List | Glossary On
Versions: 1 2 3 4 5 6 7 8 9 10 11 12 13 14 15 16 17 18 19 20 21 22 23 24 25 26 27 28 29 30 31 32 33 34 35 36 37 38 39 40 41 42 43 44 45 46 47 48 49 50
000
ASUS45 KTFX 271104
RWRMT
MONTANA HOURLY WEATHER ROUNDUP
NATIONAL WEATHER SERVICE GREAT FALLS MT
404 AM MST TUE JAN 27 2015

NOTE: "FAIR" INDICATES FEW OR NO CLOUDS BELOW 12000 FEET WITH NO
SIGNIFICANT WEATHER AND/OR OBSTRUCTIONS TO VISIBILITY.

* THESE STATIONS ARE NOT UNDER NWS QUALITY CONTROL. THEY DO NOT
   REPORT WEATHER SUCH AS PRECIPITATION OR FOG.

MTZ001>007-043-271200-
WEST OF THE DIVIDE
CITY           SKY/WX    TMP DP  RH WIND       PRES   REMARKS
KALISPELL      FOG       18  18 100 CALM      30.00F VSB 1 1/2
MISSOULA       CLEAR     27  25  92 CALM      30.07F
BUTTE          PTCLDY    27  23  85 CALM      30.08F
MULLAN PASS    PTCLDY    41  27  58 S5        30.04F
* ANACONDA     PTCLDY    39  25  57 S7         N/A   WCI  34
* ESSEX        N/A       27  25  92 E1         N/A
* LINCOLN      N/A       26  23  88 N/A        N/A
* LOOKOUT PASS N/A       36  30  79 S3         N/A
* POLSON       N/A       38  29  70 N/A        N/A
* RONAN APT    PTCLDY    30  28  92 N/A        N/A
* SEELEY LAKE  N/A       21  19  92 N2         N/A
* THOMP F APT  PTCLDY    38  25  60 NE1G6      N/A
* YAAK HILL    N/A       31  29  92 N/A        N/A
$$

MTZ008-052>055-271200-
SOUTHWEST MONTANA
CITY           SKY/WX    TMP DP  RH WIND       PRES   REMARKS
BOZEMAN        PTCLDY    25  21  85 S5        30.06F WCI  19
DILLON         CLEAR     37  27  67 S12       30.07F WCI  29
* W YELLOWSTON CLEAR     18  16  92 NW1        N/A
* THREE FORKS  PTCLDY    25  25 100 N/A        N/A
* BOULDER HILL N/A       40  23  51 SW9        N/A   WCI  34
* MONIDA PASS  N/A       31  24  75 E6         N/A   WCI  25
* RAYNOLDS PAS N/A       27   9  46 SE12       N/A   WCI  16
* WHITEHALL    N/A       34  26  73 NW8        N/A   WCI  27
* WISE RIVER   N/A       24  22  92 SW2        N/A
$$

MTZ009>010-012-014-046-048-049-054-271200-
EAST SLOPES AND CENTRAL MONTANA
CITY           SKY/WX    TMP DP  RH WIND       PRES   REMARKS
CUT BANK       CLOUDY    52  23  32 SW15      29.86S
GREAT FALLS    CLOUDY    48  28  46 SW10      29.91S
HELENA         MOCLDY    32  28  85 CALM      30.03S
MALMSTROM AFB  CLOUDY    52  28  40 SW18      29.90S
* DEARBORN     N/A       46  29  52 S4G11      N/A
* EAST GLACIER N/A       48  19  32 SW9        N/A
* MONARCH      N/A       49  18  29 S7         N/A
* PENDROY      N/A       48  21  34 W4         N/A
* ROGERS PASS  N/A       43  26  51 SE2G12     N/A
* SWEET GRASS  N/A       48  24  39 SW19       N/A
$$

MTZ011-013-016-021-035-040-045-047-050-051-271200-
NORTH CENTRAL MONTANA
CITY           SKY/WX    TMP DP  RH WIND       PRES   REMARKS
HAVRE          PTCLDY    39  30  70 SW14      29.84S WCI  31
LEWISTOWN      MOCLDY    48  27  44 NW3       29.93R
* N BAR RANCH  CLEAR     46  16  30 W13       29.93F
* DENTON       N/A       46  24  42 S3         N/A
* GEYSER       N/A       51  21  31 NW10       N/A
* JUDITH GAP   N/A       54  26  34 SW23G29    N/A
* LOMA         N/A       46  31  56 SW7        N/A
$$

MTZ017>020-022>027-061-062-271200-
NORTHEAST MONTANA
CITY           SKY/WX    TMP DP  RH WIND       PRES   REMARKS
GLASGOW        CLOUDY    34  28  79 SE7       29.83S WCI  28
GLENDIVE       MOCLDY    30  27  89 S5        29.87S WCI  25
JORDAN         PTCLDY    28  27  96 CALM      29.86R
SIDNEY         MOCLDY    30  28  92 S9        29.85S WCI  22
WOLF POINT     CLOUDY    30  27  89 W6        29.84S WCI  24
* BEAVER HILL  N/A       40  30  68 S4G9       N/A
* CIRCLE       N/A       40  33  76 N/A        N/A
* LINDSAY DVD  N/A       47  31  54 W9         N/A
* NAVAJO       N/A       33  31  92 N/A        N/A
* SACO         N/A       33  31  92 NE2        N/A
$$

MTZ028>042-056>058-271200-
SOUTHCENTRAL AND SOUTHEAST MONTANA
CITY           SKY/WX    TMP DP  RH WIND       PRES   REMARKS
BAKER          CLEAR     39  30  70 W3        29.90S
BILLINGS       PTCLDY    52  27  38 SW21      29.94F
LIVINGSTON     PTCLDY    54  25  33 W26G35    30.01S
MILES CITY     CLEAR     36  28  73 S5        29.89F WCI  32
* LAUREL APT   PTCLDY    45  27  49 S7         N/A
* ROUNDUP APT  PTCLDY    45  27  49 SW5        N/A
* ALZADA       N/A       35  28  76 NW2        N/A
* HYSHAM       N/A       48  24  39 W6         N/A
* LAME DEER    N/A       54  24  31 SW8G14     N/A
* REED POINT   N/A       27  27 100 N/A        N/A
* ROSCOE HILL  N/A       54  11  18 SE2G8      N/A
$$

REGIONAL REPORTS...DAKOTAS
CITY           SKY/WX    TMP DP  RH WIND       PRES   REMARKS
WILLISTON      MOCLDY    28  27  96 CALM      29.84S
DICKINSON      MOCLDY    34  28  79 SW6       29.83F WCI  29
CROSBY         CLEAR     32  32 100 S13       29.81F WCI  22
WATFORD CITY   CLEAR     30  30 100 CALM      29.82F
BISMARCK       PTCLDY    28  28 100 E8        29.93S WCI  20
GRAND FORKS    FOG       25  25 100 S9        30.03F VSB 1/2  WCI  16
FARGO          FOG       27  25  92 SE7       30.05F VSB 1/2  WCI  19
BUFFALO SD     PTCLDY    39  28  65 SW6       29.85S WCI  35
RAPID CITY     CLEAR     43  25  49 CALM      29.94F
$$

REGIONAL REPORTS...WYOMING/IDAHO/WASHINGTON
CITY           SKY/WX    TMP DP  RH WIND       PRES   REMARKS
GILLETTE       PTCLDY    48  27  44 SW18      30.00S
SHERIDAN       PTCLDY    39  25  57 CALM      29.96F
CODY           PTCLDY    36  27  70 S7        30.06F WCI  30
YELLOWSTONE LA PTCLDY     9   5  84 CALM      30.28F
SALMON         CLOUDY   N/A N/A N/A CALM      30.18F VSB 1/2
MULLAN PASS    PTCLDY    41  27  58 S5        30.04S
SAND POINT     FOG      N/A N/A N/A CALM      30.03S VSB M1/4
SPOKANE        FOG       32  30  92 CALM      29.99S VSB 1 1/2

$$



USA.gov is the U.S. government's official web portal to all federal, state and local government web resources and services.